Zurück zum Katalog

STARLINK-34697

AktivKommunikationVLEO
NORAD 64791·PAYLOAD·🇺🇸 United States

Gestartet Jul 16, 2025 von Vandenberg Space Force Base

Loading…

Nächste Überflüge (nächste 24 Stunden)

TLE

AktuellSource: CelesTrak SupGP

Epoche: Sep 15, 2026, 02:51 UTC

1 64791C 25150B   26258.11923611  .00037224  00000+0  31200-2 0  2580
2 64791  70.0029  16.7454 0003139 269.4228  94.7548 14.98305536    15

Verfolge STARLINK-34697 in Echtzeit mit AllMySat

Download on the App Store